Powrót do katalogu

STARLINK-34769

AktywnyŁącznośćVLEO
NORAD 65094·PAYLOAD·🇺🇸 United States

Wystrzelony Aug 4, 2025 z Cape Canaveral Space Force Station

Loading…

Następne Przeloty (najbliższe 24 godziny)

TLE

ŚwieżeSource: CelesTrak SupGP

Epoka: Sep 15, 2026, 04:00 UTC

1 65094C 25167S   26258.16715278 -.00037033  00000+0 -10943-2 0  2589
2 65094  53.1579 218.9782 0001449  83.8641  13.0816 15.34405363    15

Śledź STARLINK-34769 w czasie rzeczywistym z AllMySat

Download on the App Store